Location: Longueuil
(45.5369°N, 73.5107°W)
Time: 21:55:19
(UTC-05:00)

ISS - Pass Details

Date: 01 December 2024
Orbit: 411 x 421 km, 51.6° (Epoch: 03 December)

Event Time Altitude Azimuth Distance (km) Brightness Sun altitude
Rises 18:44:59 0° 287° (WNW) 2,373 1.1 -26.1°
Reaches altitude 10° 18:47:45 10° 262° (W) 1,503 0.1 -26.6°
Maximum altitude 18:49:43 15° 226° (SW) 1,241 -0.8 -26.9°
Enters shadow 18:50:17 14° 215° (SW) 1,264 -0.9 -27.0°
